When you browse on this site, cookies collect data to enhance your experience and personalize the content and advertising you see.
Visit our Privacy Policy to learn more. By continuing to use the site, you agree to this use of cookies and data.
  • în România
  • Lista ţărilor
  • Pe 7 zile
  • Temperatura apei
  • Hartă satelitară
  • Meteo pe hartă
  • Widget-uri
  • user-avatar
    Intrare

    Meteo pe oră la Vatican

    Astăzi, 18 Aprilie, Joi

    Timp Temperatura Precipitaţii Vânt Presiune Umiditate
    00:00 +15°C° 0 mm 1 m/s 764 mmHg 74%
    01:00 +15°C° 0 mm 1 m/s 764 mmHg 76%
    02:00 +15°C° 0 mm 1 m/s 764 mmHg 76%
    03:00 +14°C° 0 mm 2 m/s 764 mmHg 76%
    04:00 +14°C° 0 mm 2 m/s 764 mmHg 76%
    05:00 +15°C° 0 mm 2 m/s 764 mmHg 74%
    06:00 +15°C° 0 mm 2 m/s 764 mmHg 71%
    07:00 +16°C° 0 mm 2 m/s 764 mmHg 68%
    08:00 +17°C° 0 mm 2 m/s 764 mmHg 63%
    09:00 +18°C° 0 mm 2 m/s 764 mmHg 58%
    10:00 +21°C° 0 mm 1 m/s 764 mmHg 54%
    11:00 +20°C° 0 mm 2 m/s 764 mmHg 54%
    12:00 +20°C° 0 mm 3 m/s 764 mmHg 54%
    13:00 +21°C° 0 mm 3 m/s 764 mmHg 55%
    14:00 +20°C° 0 mm 3 m/s 764 mmHg 55%
    15:00 +20°C° 0 mm 3 m/s 764 mmHg 55%
    16:00 +20°C° 0 mm 2 m/s 764 mmHg 55%
    17:00 +19°C° 0 mm 2 m/s 764 mmHg 56%
    18:00 +19°C° 0 mm 1 m/s 764 mmHg 57%
    19:00 +18°C° 0 mm 1 m/s 765 mmHg 59%
    20:00 +18°C° 0 mm 1 m/s 765 mmHg 58%
    21:00 +17°C° 0 mm 2 m/s 766 mmHg 58%
    22:00 +17°C° 0 mm 2 m/s 766 mmHg 58%
    23:00 +17°C° 0 mm 2 m/s 767 mmHg 60%

    Mâine, 19 Aprilie, Vineri

    Timp Temperatura Precipitaţii Vânt Presiune Umiditate
    00:00 +17°C° 0 mm 2 m/s 767 mmHg 62%
    01:00 +16°C° 0 mm 3 m/s 767 mmHg 64%
    02:00 +16°C° 0 mm 2 m/s 767 mmHg 64%
    03:00 +15°C° 0 mm 2 m/s 767 mmHg 64%
    04:00 +15°C° 0 mm 2 m/s 767 mmHg 64%
    05:00 +15°C° 0 mm 2 m/s 767 mmHg 61%
    06:00 +15°C° 0 mm 2 m/s 767 mmHg 59%
    07:00 +16°C° 0 mm 2 m/s 767 mmHg 56%
    08:00 +17°C° 0 mm 2 m/s 768 mmHg 52%
    09:00 +20°C° 0 mm 1 m/s 768 mmHg 49%
    10:00 +21°C° 0 mm 1 m/s 768 mmHg 46%
    11:00 +22°C° 0 mm 1 m/s 768 mmHg 44%
    12:00 +21°C° 0 mm 2 m/s 768 mmHg 43%
    13:00 +21°C° 0 mm 3 m/s 768 mmHg 42%
    14:00 +21°C° 0 mm 3 m/s 768 mmHg 44%
    15:00 +20°C° 0 mm 3 m/s 768 mmHg 46%
    16:00 +20°C° 0 mm 3 m/s 767 mmHg 49%
    17:00 +19°C° 0 mm 3 m/s 767 mmHg 51%
    18:00 +18°C° 0 mm 3 m/s 767 mmHg 53%
    19:00 +18°C° 0 mm 2 m/s 767 mmHg 55%
    20:00 +17°C° 0 mm 3 m/s 768 mmHg 57%
    21:00 +17°C° 0 mm 3 m/s 768 mmHg 60%
    22:00 +17°C° 0 mm 3 m/s 768 mmHg 62%
    23:00 +16°C° 0 mm 3 m/s 768 mmHg 63%

    Poimâine, 20 Aprilie, Sâmbătă

    Timp Temperatura Precipitaţii Vânt Presiune Umiditate
    00:00 +16°C° 0 mm 3 m/s 768 mmHg 64%
    01:00 +16°C° 0 mm 2 m/s 768 mmHg 65%
    02:00 +16°C° 0 mm 2 m/s 767 mmHg 66%
    03:00 +14°C° 0 mm 3 m/s 767 mmHg 66%
    04:00 +14°C° 0 mm 3 m/s 767 mmHg 67%
    05:00 +15°C° 0 mm 2 m/s 767 mmHg 65%
    06:00 +16°C° 0 mm 2 m/s 767 mmHg 63%
    07:00 +16°C° 0 mm 2 m/s 766 mmHg 62%
    08:00 +17°C° 0 mm 2 m/s 766 mmHg 58%
    09:00 +20°C° 0 mm 1 m/s 766 mmHg 54%
    10:00 +21°C° 0 mm 1 m/s 766 mmHg 50%
    11:00 +21°C° 0 mm 2 m/s 766 mmHg 48%
    12:00 +21°C° 0 mm 2 m/s 766 mmHg 47%
    13:00 +23°C° 0 mm 2 m/s 765 mmHg 45%
    14:00 +21°C° 0 mm 2 m/s 765 mmHg 47%
    15:00 +21°C° 0 mm 2 m/s 765 mmHg 48%
    16:00 +21°C° 0 mm 2 m/s 764 mmHg 50%
    17:00 +20°C° 0 mm 2 m/s 764 mmHg 52%
    18:00 +19°C° 0 mm 2 m/s 764 mmHg 54%
    19:00 +19°C° 0 mm 1 m/s 764 mmHg 56%
    20:00 +18°C° 0 mm 2 m/s 764 mmHg 56%
    21:00 +18°C° 0 mm 2 m/s 764 mmHg 56%
    22:00 +18°C° 0 mm 3 m/s 765 mmHg 57%
    23:00 +18°C° 0 mm 2 m/s 764 mmHg 58%

    21 Aprilie, Duminică

    Timp Temperatura Precipitaţii Vânt Presiune Umiditate
    00:00 +18°C° 0 mm 2 m/s 764 mmHg 59%
    01:00 +17°C° 0 mm 2 m/s 764 mmHg 60%
    02:00 +17°C° 0 mm 2 m/s 764 mmHg 60%
    03:00 +17°C° 0 mm 2 m/s 763 mmHg 60%
    04:00 +17°C° 0 mm 2 m/s 763 mmHg 61%
    05:00 +17°C° 0 mm 2 m/s 763 mmHg 59%
    06:00 +17°C° 0 mm 2 m/s 763 mmHg 57%
    07:00 +17°C° 0 mm 2 m/s 762 mmHg 55%
    08:00 +18°C° 0 mm 2 m/s 762 mmHg 51%
    09:00 +20°C° 0 mm 2 m/s 762 mmHg 47%
    10:00 +21°C° 0 mm 2 m/s 762 mmHg 43%
    11:00 +21°C° 0 mm 3 m/s 761 mmHg 42%
    12:00 +22°C° 0 mm 3 m/s 761 mmHg 41%
    13:00 +22°C° 0 mm 4 m/s 761 mmHg 40%
    14:00 +22°C° 0 mm 4 m/s 760 mmHg 41%
    15:00 +21°C° 0 mm 4 m/s 760 mmHg 42%
    16:00 +21°C° 0 mm 4 m/s 759 mmHg 43%
    17:00 +20°C° 0 mm 3 m/s 759 mmHg 46%
    18:00 +19°C° 0 mm 3 m/s 759 mmHg 48%
    19:00 +18°C° 0 mm 2 m/s 759 mmHg 51%
    20:00 +18°C° 0 mm 2 m/s 759 mmHg 54%
    21:00 +18°C° 0 mm 3 m/s 759 mmHg 57%
    22:00 +17°C° 0 mm 3 m/s 759 mmHg 60%
    23:00 +17°C° 0 mm 3 m/s 759 mmHg 61%

    22 Aprilie, Luni

    Timp Temperatura Precipitaţii Vânt Presiune Umiditate
    00:00 +17°C° 0 mm 3 m/s 758 mmHg 63%
    01:00 +17°C° 0 mm 4 m/s 758 mmHg 64%
    02:00 +16°C° 0 mm 3 m/s 757 mmHg 65%
    03:00 +16°C° 0 mm 3 m/s 757 mmHg 65%
    04:00 +16°C° 0 mm 2 m/s 756 mmHg 66%
    05:00 +16°C° 0 mm 2 m/s 756 mmHg 64%
    06:00 +16°C° 0 mm 2 m/s 755 mmHg 62%
    07:00 +17°C° 0 mm 2 m/s 755 mmHg 61%
    08:00 +18°C° 0 mm 3 m/s 754 mmHg 54%
    09:00 +20°C° 0 mm 3 m/s 754 mmHg 48%
    10:00 +21°C° 0 mm 4 m/s 754 mmHg 41%
    11:00 +21°C° 0.1 mm 5 m/s 753 mmHg 43%
    12:00 +22°C° 0.1 mm 5 m/s 753 mmHg 45%
    13:00 +22°C° 0.1 mm 6 m/s 752 mmHg 47%
    14:00 +21°C° 0.9 mm 6 m/s 752 mmHg 54%
    15:00 +20°C° 0.9 mm 7 m/s 752 mmHg 61%
    16:00 +18°C° 0.9 mm 7 m/s 752 mmHg 68%
    17:00 +17°C° 1.3 mm 6 m/s 751 mmHg 70%
    18:00 +17°C° 1.3 mm 5 m/s 751 mmHg 73%
    19:00 +18°C° 1.3 mm 4 m/s 750 mmHg 75%
    20:00 +17°C° 0.4 mm 5 m/s 750 mmHg 75%
    21:00 +17°C° 0.4 mm 6 m/s 750 mmHg 76%
    22:00 +17°C° 0.4 mm 7 m/s 751 mmHg 76%
    23:00 +16°C° 0.3 mm 8 m/s 750 mmHg 76%

    23 Aprilie, Marţi

    Timp Temperatura Precipitaţii Vânt Presiune Umiditate
    00:00 +16°C° 0.3 mm 10 m/s 750 mmHg 77%
    01:00 +15°C° 0.3 mm 12 m/s 750 mmHg 77%
    02:00 +16°C° 0.1 mm 10 m/s 749 mmHg 77%
    03:00 +16°C° 0.1 mm 8 m/s 749 mmHg 77%
    04:00 +16°C° 0.1 mm 7 m/s 749 mmHg 77%
    05:00 +16°C° 0 mm 7 m/s 749 mmHg 74%
    06:00 +16°C° 0 mm 7 m/s 749 mmHg 72%
    07:00 +16°C° 0 mm 8 m/s 749 mmHg 69%
    08:00 +17°C° 0.1 mm 8 m/s 749 mmHg 69%
    09:00 +18°C° 0.1 mm 8 m/s 750 mmHg 68%
    10:00 +19°C° 0.1 mm 9 m/s 750 mmHg 67%
    11:00 +18°C° 0.1 mm 8 m/s 750 mmHg 71%
    12:00 +18°C° 0.1 mm 7 m/s 750 mmHg 75%
    13:00 +17°C° 0.1 mm 6 m/s 750 mmHg 78%
    14:00 +17°C° 0.3 mm 5 m/s 751 mmHg 81%
    15:00 +17°C° 0.3 mm 5 m/s 751 mmHg 83%
    16:00 +18°C° 0.3 mm 4 m/s 751 mmHg 86%
    17:00 +18°C° 1.4 mm 4 m/s 752 mmHg 84%
    18:00 +18°C° 1.4 mm 4 m/s 752 mmHg 83%
    19:00 +18°C° 1.4 mm 4 m/s 752 mmHg 82%
    20:00 +17°C° 0.2 mm 3 m/s 753 mmHg 83%
    21:00 +17°C° 0.2 mm 2 m/s 754 mmHg 84%
    22:00 +17°C° 0.2 mm 2 m/s 755 mmHg 86%
    23:00 +18°C° 0 mm 1 m/s 755 mmHg 87%
    Arată mai mult